Location: Chevoux
(46.3801°N, 4.9476°E)
Time: 17:47:23
(UTC+00:00)

Envisat - Pass Details

Date: 05 December 2021
Orbit: 764 x 766 km, 98.2° (Epoch: 16 January)

Event Time Altitude Azimuth Distance (km) Brightness Sun altitude
Rises 03:15:28 0° 31° (NNE) 3,243 6.7 -39.1°
Reaches altitude 10° 03:19:03 10° 58° (ENE) 2,309 6.1 -38.5°
Maximum altitude 03:21:32 14° 87° (E) 2,067 5.9 -38.1°
Drops below altitude 10° 03:24:00 10° 117° (ESE) 2,300 6.0 -37.7°
Sets 03:27:33 0° 143° (SE) 3,219 6.6 -37.0°
